Houston / Southwest Airport, TX

7:35 PM CDT on March 30, 2017 (GMT -0500)
Houston-Southwest

Weather History for KAXH - November, 2012

Change the Weather History Date:

Thursday, November 15, 2012

  Actual Average (KSGR) Record (KSGR)
Temperature  
Mean Temperature 52 °F -  
Max Temperature 67 °F 72 °F 90 °F (1951)
Min Temperature 38 °F 51 °F 29 °F (1969)
Degree Days  
Heating Degree Days 12    
Growing Degree Days 2 (Base 50)    
Moisture  
Dew Point 37 °F    
Average Humidity 59    
Maximum Humidity 95    
Minimum Humidity 26    
Precipitation  
Precipitation 0.00 in - - ()
Sea Level Pressure  
Sea Level Pressure 30.28 in    
Wind  
Wind Speed 2 mph (NE)    
Max Wind Speed 8 mph    
Max Gust Speed -    
Visibility 10 miles    
Events      
Averages and records for this station are not official NWS values.
T = Trace of Precipitation, MM = Missing Value Source: NWS Daily Summary

Daily Weather History Graph

Daily Weather History Graph

Search for Another Location

Airport or City:

Trip Planner

Search our weather history database for the weather conditions in past years. The results will help you decide how hot, cold, wet, or windy it might be!

Date:

Astronomy

Nov. 15, 2012 Rise Set
Actual Time 6:46 AM CST 5:26 PM CST
Civil Twilight 6:21 AM CST 5:51 PM CST
Nautical Twilight 5:52 AM CST 6:20 PM CST
Astronomical Twilight 5:24 AM CST 6:48 PM CST
Moon 8:38 AM CST (11/15) 7:23 PM CST (11/15)
Length of Visible Light 11h 30m
Length of Day
10h 39m
Waxing Crescent, 5% of the Moon is Illuminated
Nov 15
Waxing Crescent
Nov 20
First Quarter
Nov 28
Full
Dec 6
Last Quarter
Dec 13
New

Hourly Weather History & Observations

Time (CST) Temp. Windchill Dew Point Humidity Pressure Visibility Wind Dir Wind Speed Gust Speed Precip Events Conditions
12:15 AM 39.4 °F - 37.9 °F 95% 30.30 in 10.0 mi Calm Calm - N/A   Clear
12:35 AM 40.6 °F - 38.7 °F 93% 30.30 in 10.0 mi Calm Calm - N/A   Clear
12:55 AM 39.2 °F - 37.6 °F 94% 30.29 in 10.0 mi Calm Calm - N/A   Clear
1:15 AM 39.0 °F - 37.4 °F 94% 30.29 in 10.0 mi Calm Calm - N/A   Clear
1:35 AM 39.7 °F - 37.8 °F 93% 30.28 in 10.0 mi Calm Calm - N/A   Clear
1:55 AM 39.4 °F - 37.6 °F 93% 30.28 in 10.0 mi Calm Calm - N/A   Clear
2:15 AM 38.7 °F - 35.6 °F 89% 30.28 in 10.0 mi Calm Calm - N/A   Clear
2:55 AM 42.3 °F - 36.3 °F 79% 30.27 in 10.0 mi Calm Calm - N/A   Clear
3:15 AM 40.3 °F - 35.6 °F 83% 30.27 in 10.0 mi Calm Calm - N/A   Clear
3:35 AM 42.1 °F - 35.4 °F 77% 30.27 in 10.0 mi Calm Calm - N/A   Clear
3:55 AM 41.5 °F - 35.6 °F 79% 30.28 in 10.0 mi Calm Calm - N/A   Clear
4:15 AM 42.1 °F - 35.6 °F 78% 30.28 in 10.0 mi Calm Calm - N/A   Clear
4:35 AM 41.7 °F - 35.2 °F 78% 30.27 in 10.0 mi Calm Calm - N/A   Clear
4:55 AM 41.4 °F - 35.1 °F 78% 30.28 in 10.0 mi Calm Calm - N/A   Clear
5:15 AM 40.3 °F - 34.7 °F 80% 30.28 in 10.0 mi Calm Calm - N/A   Clear
5:35 AM 41.0 °F - 35.6 °F 81% 30.28 in 10.0 mi Calm Calm - N/A   Clear
5:55 AM 41.4 °F - 35.8 °F 81% 30.28 in 10.0 mi Calm Calm - N/A   Clear
6:15 AM 41.2 °F - 35.6 °F 81% 30.29 in 10.0 mi Calm Calm - N/A   Clear
6:35 AM 41.4 °F 39.4 °F 35.8 °F 81% 30.29 in 10.0 mi NNE 3.5 mph - N/A   Clear
6:55 AM 41.2 °F 38.2 °F 35.8 °F 81% 30.29 in 10.0 mi NNE 4.6 mph - N/A   Clear
7:15 AM 42.8 °F 41.1 °F 37.0 °F 80% 30.29 in 10.0 mi NNE 3.5 mph - N/A   Clear
7:35 AM 44.8 °F 43.3 °F 38.5 °F 79% 30.30 in 10.0 mi NE 3.5 mph - N/A   Clear
7:55 AM 47.5 °F - 39.9 °F 75% 30.31 in 10.0 mi NE 4.6 mph - N/A   Clear
8:15 AM 49.6 °F - 40.3 °F 70% 30.31 in 10.0 mi NE 5.8 mph - N/A   Clear
8:35 AM 52.2 °F - 39.9 °F 63% 30.31 in 10.0 mi ENE 3.5 mph - N/A   Clear
8:55 AM 54.5 °F - 39.0 °F 56% 30.32 in 10.0 mi ENE 8.1 mph - N/A   Clear
9:15 AM 56.5 °F - 37.9 °F 50% 30.32 in 10.0 mi ENE 8.1 mph - N/A   Clear
9:35 AM 58.3 °F - 37.6 °F 46% 30.32 in 10.0 mi ENE 8.1 mph - N/A   Clear
9:55 AM 59.4 °F - 35.1 °F 40% 30.32 in 10.0 mi East 8.1 mph - N/A   Clear
10:15 AM 60.8 °F - 34.2 °F 37% 30.33 in 10.0 mi NE 4.6 mph - N/A   Clear
10:35 AM 61.9 °F - 32.9 °F 34% 30.33 in 10.0 mi NE 6.9 mph - N/A   Clear
10:55 AM 62.8 °F - 33.1 °F 33% 30.32 in 10.0 mi East 4.6 mph - N/A   Clear
11:15 AM 63.0 °F - 33.1 °F 33% 30.31 in 10.0 mi ENE 3.5 mph - N/A   Clear
11:35 AM 63.0 °F - 32.2 °F 32% 30.30 in 10.0 mi ENE 5.8 mph - N/A   Clear
11:55 AM 64.8 °F - 32.2 °F 30% 30.30 in 10.0 mi NE 6.9 mph - N/A   Clear
12:15 PM 64.9 °F - 32.5 °F 30% 30.28 in 10.0 mi NNW 3.5 mph - N/A   Clear
12:35 PM 66.4 °F - 32.2 °F 28% 30.27 in 10.0 mi NE 5.8 mph - N/A   Clear
12:55 PM 67.1 °F - 32.9 °F 28% 30.26 in 10.0 mi NE 6.9 mph - N/A   Clear
1:15 PM 65.8 °F - 32.0 °F 28% 30.25 in 10.0 mi NNE 5.8 mph - N/A   Clear
1:35 PM 66.7 °F - 32.0 °F 27% 30.25 in 10.0 mi NE 3.5 mph - N/A   Clear
1:55 PM 66.0 °F - 31.1 °F 27% 30.24 in 10.0 mi ENE 3.5 mph - N/A   Clear
2:15 PM 67.8 °F - 31.5 °F 26% 30.24 in 10.0 mi ENE 5.8 mph - N/A   Scattered Clouds
2:35 PM 67.1 °F - 31.5 °F 27% 30.24 in 10.0 mi Calm Calm - N/A   Overcast
2:55 PM 66.9 °F - 31.8 °F 27% 30.23 in 10.0 mi NNE 3.5 mph - N/A   Overcast
3:15 PM 66.7 °F - 31.3 °F 27% 30.22 in 10.0 mi ENE 4.6 mph - N/A   Overcast
3:35 PM 67.5 °F - 30.9 °F 26% 30.21 in 7.0 mi SE 3.5 mph - N/A   Mostly Cloudy
3:55 PM 66.4 °F - 30.0 °F 26% 30.21 in 10.0 mi Calm Calm - N/A   Clear
4:15 PM 66.4 °F - 31.1 °F 27% 30.21 in 10.0 mi Calm Calm - N/A   Scattered Clouds
4:35 PM 66.2 °F - 31.5 °F 27% 30.22 in 10.0 mi Calm Calm - N/A   Scattered Clouds
4:55 PM 64.6 °F - 30.9 °F 28% 30.22 in 2.0 mi Calm Calm - N/A   Haze
5:15 PM 62.6 °F - 33.1 °F 33% 30.22 in 3.0 mi Calm Calm - N/A   Haze
5:35 PM 60.8 °F - 33.6 °F 36% 30.24 in 7.0 mi Calm Calm - N/A   Scattered Clouds
5:55 PM 57.2 °F - 35.1 °F 43% 30.24 in 5.0 mi Calm Calm - N/A   Haze
6:15 PM 56.5 °F - 37.4 °F 49% 30.24 in 10.0 mi Calm Calm - N/A   Mostly Cloudy
6:35 PM 56.3 °F - 38.3 °F 51% 30.25 in 10.0 mi Calm Calm - N/A   Mostly Cloudy
6:55 PM 53.1 °F - 38.7 °F 58% 30.26 in 10.0 mi Calm Calm - N/A   Scattered Clouds
7:15 PM 51.6 °F - 41.0 °F 67% 30.26 in 10.0 mi Calm Calm - N/A   Overcast
7:35 PM 51.4 °F - 40.8 °F 67% 30.27 in 10.0 mi Calm Calm - N/A   Mostly Cloudy
7:55 PM 52.5 °F - 40.1 °F 63% 30.27 in 10.0 mi Calm Calm - N/A   Scattered Clouds
8:15 PM 50.2 °F - 40.3 °F 69% 30.28 in 10.0 mi Calm Calm - N/A   Scattered Clouds
8:35 PM 49.3 °F - 41.0 °F 73% 30.29 in 10.0 mi Calm Calm - N/A   Mostly Cloudy
8:55 PM 49.3 °F - 42.4 °F 77% 30.28 in 10.0 mi Calm Calm - N/A   Mostly Cloudy
9:15 PM 50.0 °F - 42.1 °F 74% 30.29 in 10.0 mi Calm Calm - N/A   Overcast
9:35 PM 50.0 °F - 42.1 °F 74% 30.29 in 10.0 mi Calm Calm - N/A   Overcast
9:55 PM 50.0 °F - 42.6 °F 76% 30.30 in 10.0 mi Calm Calm - N/A   Overcast
10:15 PM 51.6 °F - 43.9 °F 75% 30.30 in 10.0 mi Calm Calm - N/A   Overcast
10:35 PM 52.9 °F - 43.5 °F 71% 30.30 in 10.0 mi Calm Calm - N/A   Overcast
10:55 PM 52.9 °F - 44.2 °F 72% 30.29 in 10.0 mi Calm Calm - N/A   Overcast
11:15 PM 53.4 °F - 44.1 °F 71% 30.29 in 10.0 mi Calm Calm - N/A   Overcast
11:35 PM 53.1 °F - 44.1 °F 71% 30.30 in 10.0 mi Calm Calm - N/A   Overcast
11:55 PM 52.0 °F - 45.3 °F 78% 30.30 in 10.0 mi Calm Calm - N/A   Overcast